TimeEDT,TemperatureF,Dew PointF,Humidity,Sea Level PressureIn,VisibilityMPH,Wind Direction,Wind SpeedMPH,Gust SpeedMPH,PrecipitationIn,Events,Conditions,WindDirDegrees,DateUTC
12:56 AM,75.9,71.1,85,29.98,10.0,SW,10.4,-,N/A,,Mostly Cloudy,230,2014-04-30 04:56:00
1:56 AM,75.0,71.1,87,29.99,10.0,WSW,8.1,-,N/A,,Clear,240,2014-04-30 05:56:00
2:56 AM,73.9,66.9,79,29.97,10.0,SW,6.9,-,N/A,,Clear,220,2014-04-30 06:56:00
3:56 AM,73.0,66.9,81,29.98,10.0,SW,5.8,-,N/A,,Clear,220,2014-04-30 07:56:00
4:56 AM,73.9,66.0,76,30.00,10.0,SW,6.9,-,N/A,,Scattered Clouds,230,2014-04-30 08:56:00
5:56 AM,73.0,66.0,79,29.98,10.0,SW,5.8,-,N/A,,Clear,230,2014-04-30 09:56:00
6:56 AM,73.9,66.0,76,30.01,10.0,WSW,5.8,-,N/A,,Mostly Cloudy,240,2014-04-30 10:56:00
7:56 AM,75.0,66.9,76,30.02,10.0,SW,5.8,-,N/A,,Mostly Cloudy,220,2014-04-30 11:56:00
8:56 AM,75.9,70.0,82,30.03,10.0,SW,5.8,-,N/A,,Mostly Cloudy,230,2014-04-30 12:56:00
9:42 AM,75.9,72.0,87,30.02,1.8,WSW,8.1,-,0.05,Rain,Light Rain,240,2014-04-30 13:42:00
9:44 AM,75.0,72.0,90,30.01,2.5,WSW,9.2,-,0.06,Rain-Thunderstorm,Light Thunderstorms and Rain,240,2014-04-30 13:44:00
9:56 AM,75.0,73.0,94,30.01,7.0,WSW,6.9,-,0.07,Thunderstorm,Thunderstorm,240,2014-04-30 13:56:00
10:08 AM,75.0,73.0,94,30.02,5.0,SW,9.2,18.4,0.00,Rain-Thunderstorm,Light Thunderstorms and Rain,220,2014-04-30 14:08:00
10:27 AM,71.1,68.0,90,30.03,2.0,West,19.6,32.2,0.05,Rain-Thunderstorm,Thunderstorms and Rain,260,2014-04-30 14:27:00
10:56 AM,70.0,68.0,93,30.03,4.0,West,9.2,-,0.14,Rain-Thunderstorm,Light Thunderstorms and Rain,260,2014-04-30 14:56:00
11:52 AM,73.4,71.6,94,30.04,9.0,Variable,5.8,-,0.00,Rain,Light Rain,0,2014-04-30 15:52:00
11:56 AM,73.0,70.0,90,30.05,10.0,SW,5.8,-,0.00,Thunderstorm,Overcast,220,2014-04-30 15:56:00
12:11 PM,73.0,69.1,87,30.06,3.0,WSW,8.1,-,0.01,Rain-Thunderstorm,Thunderstorms and Rain,240,2014-04-30 16:11:00
12:18 PM,72.0,70.0,93,30.06,3.0,WSW,8.1,-,0.04,Rain-Thunderstorm,Thunderstorms and Rain,250,2014-04-30 16:18:00
12:26 PM,73.0,70.0,90,30.06,0.5,WNW,13.8,18.4,0.11,Fog-Rain-Thunderstorm,Heavy Thunderstorms and Rain,290,2014-04-30 16:26:00
12:35 PM,71.1,69.1,93,30.06,3.0,WSW,11.5,27.6,0.21,Rain-Thunderstorm,Thunderstorms and Rain,250,2014-04-30 16:35:00
12:56 PM,72.0,69.1,91,30.06,5.0,SW,5.8,-,0.22,Rain-Thunderstorm,Light Thunderstorms and Rain,220,2014-04-30 16:56:00
1:17 PM,73.0,71.1,93,30.03,7.0,SSW,4.6,-,0.00,,Overcast,210,2014-04-30 17:17:00
1:56 PM,75.0,71.1,87,30.00,10.0,SW,8.1,-,0.00,,Overcast,220,2014-04-30 17:56:00
2:56 PM,75.9,70.0,82,29.98,10.0,SSW,10.4,17.3,N/A,,Overcast,210,2014-04-30 18:56:00
3:07 PM,75.9,70.0,82,29.94,10.0,SSW,10.4,19.6,N/A,,Overcast,210,2014-04-30 19:07:00
3:56 PM,77.0,68.0,74,29.95,10.0,WSW,8.1,-,N/A,,Overcast,240,2014-04-30 19:56:00
4:56 PM,80.1,69.1,69,29.91,10.0,SW,9.2,18.4,N/A,,Mostly Cloudy,220,2014-04-30 20:56:00
5:56 PM,80.1,68.0,67,29.94,10.0,WSW,12.7,18.4,N/A,,Mostly Cloudy,250,2014-04-30 21:56:00
6:56 PM,78.1,68.0,71,29.96,10.0,WSW,4.6,-,N/A,,Mostly Cloudy,240,2014-04-30 22:56:00
7:56 PM,75.9,69.1,79,29.96,10.0,SSW,3.5,-,N/A,,Mostly Cloudy,210,2014-04-30 23:56:00
8:56 PM,73.9,66.9,79,30.00,10.0,West,6.9,-,N/A,,Mostly Cloudy,260,2014-05-01 00:56:00
9:56 PM,73.9,68.0,82,30.01,10.0,WSW,6.9,-,N/A,,Mostly Cloudy,240,2014-05-01 01:56:00
10:56 PM,73.9,68.0,82,29.99,10.0,WSW,5.8,-,N/A,,Clear,250,2014-05-01 02:56:00
11:56 PM,75.0,66.9,76,29.99,10.0,SW,5.8,-,N/A,,Clear,230,2014-05-01 03:56:00